Location: Ch�teau-Arnoux
(44.0814°N, 6.0027°E)
Time: 01:27:03
(UTC+00:00)

CZ-4B R/B - Pass Details

Date: 15 November 2019
Orbit: 486 x 653 km, 97.8° (Epoch: 05 December)

Event Time Altitude Azimuth Distance (km) Brightness Sun altitude
Rises 03:59:37 0° 18° (NNE) 2,567 6.5 -27.1°
Reaches altitude 10° 04:01:44 10° 24° (NNE) 1,681 5.5 -26.7°
Enters shadow 04:03:33 26° 39° (NE) 992 4.4 -26.4°
